TimeEST,TemperatureF,Dew PointF,Humidity,Sea Level PressureIn,VisibilityMPH,Wind Direction,Wind SpeedMPH,Gust SpeedMPH,PrecipitationIn,Events,Conditions,WindDirDegrees,DateUTC
12:56 AM,51.1,46.9,86,30.28,10.0,NNE,13.8,-,N/A,,Overcast,30,2012-11-14 05:56:00
1:56 AM,50.0,45.0,83,30.28,10.0,NNE,15.0,-,N/A,,Overcast,30,2012-11-14 06:56:00
2:56 AM,48.0,43.0,83,30.29,10.0,NNE,15.0,-,N/A,,Overcast,20,2012-11-14 07:56:00
3:56 AM,48.0,43.0,83,30.30,10.0,NE,11.5,-,N/A,,Overcast,40,2012-11-14 08:56:00
4:56 AM,46.9,43.0,86,30.31,10.0,NE,11.5,19.6,N/A,,Overcast,40,2012-11-14 09:56:00
5:56 AM,46.9,41.0,80,30.31,10.0,NE,15.0,-,N/A,,Overcast,40,2012-11-14 10:56:00
6:56 AM,46.9,41.0,80,30.33,10.0,NE,15.0,20.7,N/A,,Overcast,40,2012-11-14 11:56:00
7:56 AM,46.9,39.9,77,30.35,10.0,NE,13.8,-,N/A,,Overcast,40,2012-11-14 12:56:00
8:56 AM,48.0,41.0,77,30.36,10.0,NNE,13.8,-,N/A,,Overcast,30,2012-11-14 13:56:00
9:56 AM,48.9,42.1,77,30.38,10.0,NNE,10.4,-,N/A,,Overcast,30,2012-11-14 14:56:00
10:56 AM,50.0,42.1,74,30.38,10.0,NNE,11.5,-,N/A,,Overcast,30,2012-11-14 15:56:00
11:56 AM,50.0,43.0,77,30.35,10.0,NNE,13.8,-,N/A,,Overcast,30,2012-11-14 16:56:00
12:56 PM,51.1,43.0,74,30.32,10.0,North,11.5,-,N/A,,Overcast,10,2012-11-14 17:56:00
1:56 PM,52.0,44.1,74,30.30,10.0,North,13.8,18.4,N/A,,Overcast,10,2012-11-14 18:56:00
2:56 PM,52.0,43.0,71,30.29,10.0,North,9.2,-,N/A,,Overcast,360,2012-11-14 19:56:00
3:56 PM,52.0,43.0,71,30.30,10.0,NNE,10.4,-,N/A,,Overcast,30,2012-11-14 20:56:00
4:56 PM,52.0,43.0,71,30.28,10.0,NNE,10.4,-,N/A,,Overcast,30,2012-11-14 21:56:00
5:56 PM,52.0,43.0,71,30.28,10.0,NE,12.7,-,N/A,,Overcast,40,2012-11-14 22:56:00
6:31 PM,51.8,42.8,71,30.29,10.0,NNE,11.5,-,N/A,,Overcast,30,2012-11-14 23:31:00
6:56 PM,51.1,43.0,74,30.29,10.0,NNE,9.2,-,N/A,,Overcast,30,2012-11-14 23:56:00
7:56 PM,51.1,43.0,74,30.30,10.0,NE,9.2,-,N/A,,Overcast,50,2012-11-15 00:56:00
8:27 PM,51.8,42.8,71,30.30,10.0,NE,10.4,-,N/A,,Overcast,40,2012-11-15 01:27:00
8:56 PM,51.1,43.0,74,30.30,10.0,NE,10.4,-,N/A,,Overcast,40,2012-11-15 01:56:00
9:56 PM,51.1,43.0,74,30.30,10.0,NNE,8.1,-,N/A,,Overcast,20,2012-11-15 02:56:00
10:56 PM,50.0,43.0,77,30.28,10.0,NNE,11.5,-,N/A,,Overcast,30,2012-11-15 03:56:00
11:56 PM,50.0,44.1,80,30.26,10.0,NE,10.4,18.4,N/A,,Overcast,40,2012-11-15 04:56:00